Chicago DuPage, IL

9:16 AM CST on November 24, 2017 (GMT -0600)
Du Page

Weather History for KDPA - June, 2013

Change the Weather History Date:

Friday, June 21, 2013

  Actual Average Record
Temperature  
Mean Temperature 74 °F 72 °F  
Max Temperature 82 °F 83 °F 90 °F (2005)
Min Temperature 66 °F 60 °F 46 °F (2003)
Degree Days  
Heating Degree Days 0 0  
Month to date heating degree days 54 34  
Since 1 June heating degree days 54 34  
Since 1 July heating degree days 6583 6313  
Cooling Degree Days 9 7  
Month to date cooling degree days 66 105  
Year to date cooling degree days 143 151  
Since 1 June cooling degree days 66 105  
Growing Degree Days 25 (Base 50)    
Moisture  
Dew Point 65 °F    
Average Humidity 79    
Maximum Humidity 96    
Minimum Humidity 62    
Precipitation  
Precipitation 0.66 in 0.08 in 0.79 in (2014)
Month to date precipitation 2.26 3.09  
Year to date precipitation 19.55 16.11  
Sea Level Pressure  
Sea Level Pressure 30.07 in    
Wind  
Wind Speed 9 mph (SSE)    
Max Wind Speed 29 mph    
Max Gust Speed 36 mph    
Visibility 8 miles    
Events Fog , Rain , Thunderstorm    
T = Trace of Precipitation, MM = Missing Value Source: NWS Daily Summary

Daily Weather History Graph

Daily Weather History Graph

Search for Another Location

Airport or City:

Trip Planner

Search our weather history database for the weather conditions in past years. The results will help you decide how hot, cold, wet, or windy it might be!

Date:

Astronomy

Jun. 21, 2013 Rise Set
Actual Time 5:17 AM CDT 8:31 PM CDT
Civil Twilight 4:43 AM CDT 9:06 PM CDT
Nautical Twilight 3:59 AM CDT 9:50 PM CDT
Astronomical Twilight 3:05 AM CDT 10:44 PM CDT
Moon 6:41 PM CDT (6/21) 3:34 AM CDT (6/21)
Length of Visible Light 16h 22m
Length of Day
15h 13m
Waxing Gibbous, 95% of the Moon is Illuminated
Jun 21
Waxing Gibbous
Jun 23
Full
Jun 29
Last Quarter
Jul 8
New
Jul 15
First Quarter

Hourly Weather History & Observations

Time (CDT) Temp. Heat Index Dew Point Humidity Pressure Visibility Wind Dir Wind Speed Gust Speed Precip Events Conditions
12:52 AM 70.0 °F - 63.0 °F 78% 30.09 in 10.0 mi SSE 6.9 mph - N/A   Clear
1:52 AM 69.1 °F - 62.1 °F 78% 30.09 in 10.0 mi South 5.8 mph - N/A   Clear
2:52 AM 69.1 °F - 62.1 °F 78% 30.08 in 10.0 mi South 5.8 mph - N/A   Clear
3:52 AM 68.0 °F - 62.1 °F 81% 30.09 in 8.0 mi South 4.6 mph - N/A   Clear
4:52 AM 69.1 °F - 62.1 °F 78% 30.08 in 10.0 mi South 6.9 mph - N/A   Clear
5:52 AM 69.1 °F - 62.1 °F 78% 30.08 in 9.0 mi South 8.1 mph - N/A   Clear
6:52 AM 72.0 °F - 63.0 °F 73% 30.07 in 10.0 mi South 10.4 mph - N/A   Clear
7:52 AM 75.9 °F - 64.9 °F 69% 30.09 in 10.0 mi South 10.4 mph - N/A   Clear
8:52 AM 78.1 °F - 66.9 °F 68% 30.06 in 10.0 mi South 17.3 mph - N/A   Clear
9:52 AM 80.1 °F 82.3 °F 66.9 °F 64% 30.06 in 10.0 mi South 15.0 mph - N/A   Clear
10:52 AM 82.0 °F 84.9 °F 68.0 °F 62% 30.07 in 10.0 mi South 13.8 mph 21.9 mph N/A   Clear
11:52 AM 80.1 °F 82.7 °F 68.0 °F 67% 30.09 in 10.0 mi South 5.8 mph - N/A   Mostly Cloudy
12:21 PM 71.6 °F - 66.2 °F 83% 30.16 in 10.0 mi NW 19.6 mph 25.3 mph 0.00 in Rain Light Rain
12:35 PM 69.8 °F - 66.2 °F 88% 30.17 in 1.0 mi NW 11.5 mph - 0.09 in Rain Heavy Rain
12:45 PM 68.0 °F - 66.2 °F 94% 30.17 in 0.8 mi Variable 3.5 mph - 0.31 in Rain , Thunderstorm Heavy Thunderstorms and Rain
12:52 PM 68.0 °F - 66.9 °F 96% 30.17 in 0.5 mi East 5.8 mph - 0.50 in Fog , Rain , Thunderstorm Heavy Thunderstorms and Rain
12:56 PM 68.0 °F - 66.2 °F 94% 30.18 in 1.0 mi Variable 3.5 mph - 0.02 in Rain , Thunderstorm Heavy Thunderstorms and Rain
1:05 PM 68.0 °F - 66.2 °F 94% 30.17 in 3.0 mi East 6.9 mph - 0.05 in Rain , Thunderstorm Thunderstorms and Rain
1:52 PM 68.0 °F - 66.0 °F 93% 30.14 in 9.0 mi East 4.6 mph - 0.11 in Rain , Thunderstorm Light Thunderstorms and Rain
2:52 PM 69.1 °F - 64.0 °F 84% 30.03 in 10.0 mi SE 16.1 mph 21.9 mph 0.05 in Rain Light Rain
3:52 PM 73.0 °F - 62.1 °F 68% 29.88 in 10.0 mi SSE 20.7 mph 25.3 mph 0.00 in   Scattered Clouds
4:52 PM 75.0 °F - 63.0 °F 66% 29.96 in 10.0 mi SW 3.5 mph - N/A   Clear
5:52 PM 73.9 °F - 64.9 °F 73% 29.99 in 10.0 mi Calm Calm - N/A   Clear
6:52 PM 73.9 °F - 64.9 °F 73% 30.01 in 10.0 mi SE 5.8 mph - N/A   Clear
7:52 PM 73.0 °F - 64.9 °F 76% 30.01 in 10.0 mi SSE 6.9 mph - N/A   Clear
8:52 PM 72.0 °F - 66.0 °F 81% 30.02 in 10.0 mi South 9.2 mph - N/A   Clear
9:52 PM 70.0 °F - 64.9 °F 84% 30.05 in 10.0 mi South 3.5 mph - N/A   Mostly Cloudy
10:52 PM 71.1 °F - 66.0 °F 84% 30.04 in 10.0 mi South 8.1 mph - N/A   Scattered Clouds
11:52 PM 71.1 °F - 66.9 °F 87% 30.02 in 10.0 mi South 10.4 mph - N/A   Clear